Location: Écuvilly
(49.6505°N, 2.9206°E)
Time: 17:00:40
(UTC+00:00)

Cosmos 1627 Rocket - Pass Details

Date: 17 November 2025
Orbit: 949 x 1003 km, 82.9° (Epoch: 08 December)

Event Time Altitude Azimuth Distance (km) Brightness Sun altitude
Rises 18:19:43 0° 352° (N) 3,635 7.5 -21.9°
Reaches altitude 10° 18:22:15 10° 355° (N) 2,687 6.8 -22.3°
Maximum altitude 18:28:21 65° 77° (ENE) 1,050 4.3 -23.3°
Drops below altitude 10° 18:34:27 10° 159° (SSE) 2,691 6.6 -24.3°
Sets 18:36:59 0° 163° (SSE) 3,641 7.3 -24.7°
